Regional Weather Roundup
Issued by NWS

Home | Current Version | Previous Version | Text Only | Print | Product List | Glossary On
Versions: 1 2 3 4 5 6 7 8 9 10 11 12 13 14 15 16 17 18 19 20 21 22 23 24 25 26 27 28 29 30 31 32 33 34 35 36 37 38 39 40 41 42 43 44 45 46 47 48 49 50
000
ASUS43 KMPX 310501
RWRMN
WEATHER ROUNDUP FOR MINNESOTA
NATIONAL WEATHER SERVICE TWIN CITIES/CHANHASSEN MN
1200 AM CDT THU JUL 31 2014


NOTE: "FAIR" INDICATES FEW OR NO CLOUDS BELOW 12,000 FEET WITH NO
SIGNIFICANT WEATHER AND/OR OBSTRUCTIONS TO VISIBILITY. N/A MEANS
CURRENT SKY AND/OR WEATHER CONDITIONS ARE NOT AVAILABLE.

MNZ060>063-068>070-310600-
   Twin Cities Metro

CITY           SKY/WX    TMP DP  RH WIND       PRES   REMARKS
TWIN CITIES    CLEAR     70  58  65 W6        30.04S
ST PAUL        CLEAR     67  56  67 CALM      30.04R
CRYSTAL        CLEAR     67  56  67 W6        30.03S
BLAINE         CLEAR     64  57  77 W5        30.04S
LAKEVILLE      CLEAR     63  57  82 CALM      30.05S
EDEN PRAIRIE   CLEAR     66  58  75 W3        30.04S
SOUTH ST PAUL  CLEAR     68  57  67 W6        30.03S
LAKE ELMO      FAIR      61  57  88 CALM      30.04S
$$
MNZ001>005-007-008-013>017-022>024-027-028-310600-
   Northwest Minnesota

CITY           SKY/WX    TMP DP  RH WIND       PRES   REMARKS
BEMIDJI        CLEAR     58  53  83 W5        30.05S
HALLOCK        CLEAR     64  57  77 CALM      30.02F
ROSEAU           N/A     66  59  77 W6        30.03R
WARROAD        CLEAR     64  61  88 W5        30.02S
THIEF RVR FALL CLEAR     64  57  77 CALM      30.05S
CROOKSTON      CLEAR     63  59  88 CALM      30.05S
FOSSTON        CLEAR     55  52  88 CALM      30.06F
DETROIT LAKES  CLEAR     61  59  94 CALM      30.07F
MOORHEAD       CLEAR     64  61  88 CALM      30.06S
PARK RAPIDS    CLEAR     58  55  90 CALM      30.06S
$$
MNZ006-009>011-018-025>026-310600-
   North Central Minnesota

CITY           SKY/WX    TMP DP  RH WIND       PRES   REMARKS
BAUDETTE       MOCLDY    66  58  75 VRB3      30.01S
FLAG ISLAND    CLEAR     70  61  73 NW6       29.99S
INTL FALLS     MOCLDY    57  56  96 CALM      29.99S
WASKISH        CLEAR     70  61  73 CALM      30.01F
BIG FORK       CLEAR     63  55  77 W2        30.02S
LONGVILLE      CLEAR     57  55  94 CALM      30.03F
GRAND RAPIDS   CLEAR     64  55  72 W6        30.03S
CRANE LAKE     MOCLDY    55  54  94 CALM      30.01S FOG
ORR            PTCLDY    59  55  88 CALM      29.98S FOG
COOK           FOG       61  59  94 CALM      30.01S VSB 1/2
$$
MNZ012-019>021-037-310600-
   Northeast Minnesota

CITY           SKY/WX    TMP DP  RH WIND       PRES   REMARKS
DULUTH         PTCLDY    64  56  75 NW6       30.00S
ELY            CLEAR     55  54  94 CALM      30.00S
HIBBING        CLEAR     66  55  67 W6        30.01S
EVELETH        LGT RAIN  64  55  72 NW7       30.02R
DULUTH HARBOR  PTCLDY    70  61  73 W7        29.98S
TWO HARBORS    PTCLDY    63  55  77 NW5       29.97S
SILVER BAY     CLEAR     55  55 100 CALM      29.97S
GRAND MARAIS     N/A     59  52  77 N7        29.94F
G MARAIS ARPRT CLEAR     54  46  76 W5        30.00S
$$
MNZ029>031-032-039>041-046>048-054>057-064-310600-
   West Central Minnesota

CITY           SKY/WX    TMP DP  RH WIND       PRES   REMARKS
FERGUS FALLS   CLEAR     64  55  72 CALM      30.06S
WHEATON        CLEAR     61  57  88 SW6       30.09S
MORRIS         CLEAR     59  55  88 W3        30.07S
ALEXANDRIA     CLEAR     62  56  80 SW5       30.09S
ELBOW LAKE     FAIR      62  59  90 CALM      30.06F
WADENA         CLEAR     55  54  94 CALM      30.06S
GLENWOOD       CLEAR     59  55  88 SW6       30.09R
APPLETON       CLEAR     61  55  82 CALM      30.07S
BENSON         CLEAR     57  57 100 CALM      30.08S
ORTONVILLE     CLEAR     64  55  72 W3        30.08S
MADISON        CLEAR     63  57  82 W3        30.09S
WILLMAR        FAIR      63  55  77 CALM      30.09S
$$
MNZ033>034-036-042>043-049>051-058-059-310600-
   Central Minnesota

CITY           SKY/WX    TMP DP  RH WIND       PRES   REMARKS
ST CLOUD       CLEAR     64  55  72 NW5       30.04F
SAUK CENTRE    FAIR      58  55  90 CALM      30.07S
PAYNESVILLE    CLEAR     54  53  97 SW5       30.08R
AITKIN         CLEAR     63  55  77 CALM      30.03S
PINE RIVER     CLEAR     57  55  94 CALM      30.08S
BRAINERD       CLEAR     59  56  89 CALM      30.05S
STAPLES        CLEAR     57  54  88 W3        30.06S
LONG PRAIRIE   FAIR      55  54  94 CALM      30.07S
LITTLE FALLS   CLEAR     55  54  94 CALM      30.06S
LITCHFIELD       N/A     64  61  88 CALM      30.08S
BUFFALO        CLEAR     64  58  80 CALM      30.06S
MAPLE LAKE     CLEAR     63  58  83 CALM      30.06S
$$
MNZ037-044-045-052-053-310600-
   East Central Minnesota

CITY           SKY/WX    TMP DP  RH WIND       PRES   REMARKS
PRINCETON      CLEAR     61  55  82 CALM      30.05S
MORA           CLEAR     63  55  77 CALM      30.05S
CAMBRIDGE      CLEAR     66  54  63 CALM      30.02S
RUSH CITY      PTCLDY    62  57  82 CALM      30.03S
MOOSE LAKE     PTCLDY    61  55  82 W5        30.00S
HINCKLEY       FAIR      63  59  88 W3        30.02S
CLOQUET        CLEAR     63  55  77 W7        30.01S
MCGREGOR       CLEAR     63  59  88 CALM      30.03S
$$
MNZ071>073-080-081-089-090-097-098-310600-
   Southwest Minnesota

CITY           SKY/WX    TMP DP  RH WIND       PRES   REMARKS
MONTEVIDEO     CLEAR     63  54  72 W3        30.09S
GRANITE FALLS  CLEAR     58  55  91 SW3       30.10S
CANBY          CLEAR     59  55  89 W3        30.11S
MARSHALL       CLEAR     61  54  77 SW3       30.08F
REDWOOD FALLS  CLEAR     65  56  72 W3        30.08S
OLIVIA         CLEAR     61  54  77 CALM      30.07F
PIPESTONE      CLEAR     61  57  88 CALM      30.12S
WINDOM         PTCLDY    59  55  88 CALM      30.11S
WORTHINGTON    CLEAR     61  54  77 CALM      30.12S
JACKSON        CLEAR     59  54  82 CALM      30.11F
TRACY          CLEAR     64  56  76 SW5       30.10F
SLAYTON        CLEAR     59  56  89 CALM      30.12S
$$
MNZ065>067-074>077-082>085-091>093-310600-
   South Central Minnesota

CITY           SKY/WX    TMP DP  RH WIND       PRES   REMARKS
MANKATO        CLEAR     63  54  72 W5        30.07S
NEW ULM        CLEAR     57  57 100 CALM      30.08S
ST JAMES       CLEAR     61  55  82 CALM      30.10S
FAIRMONT       CLEAR     61  46  59 W3        30.09S
GLENCOE        CLEAR     64  56  75 CALM      30.06S
FARIBAULT      CLEAR     64  57  77 W3        30.06F
OWATONNA       CLEAR     61  55  82 SW3       30.07S
WASECA         CLEAR     55  50  82 CALM      30.09S
ALBERT LEA     CLEAR     64  57  77 CALM      30.08F
$$
MNZ078>079-086>088-094>096-310600-
   Southeast Minnesota

CITY           SKY/WX    TMP DP  RH WIND       PRES   REMARKS
ROCHESTER      CLEAR     61  57  87 W8        30.08S
RED WING       CLEAR     61  57  88 CALM      30.03R
STANTON        CLEAR     63  58  83 CALM      30.04S
DODGE CENTER   PTCLDY    61  57  88 W6        30.07S
WINONA         CLEAR     66  61  82 W3        30.04R
AUSTIN         CLEAR     64  55  72 W5        30.08S
PRESTON        CLEAR     63  60  91 W8        30.07S
$$
ABBREVIATIONS USED IN REMARKS
   TC - TEMPERATURES IN CELSIUS
  WCI - WIND CHILL INDEX
   HX - HEAT INDEX
  VSB - VISIBILITY
$$


USA.gov is the U.S. government's official web portal to all federal, state and local government web resources and services.